Location: Zapote
(9.9191°N, 84.0597°W)
Time: 18:06:31
(UTC-06:00)

Transit 2A - Pass Details

Date: 06 March 2021
Orbit: 602 x 957 km, 66.7° (Epoch: 16 April)

Event Time Altitude Azimuth Distance (km) Brightness Sun altitude
Rises 02:26:56 0° 15° (NNE) 2,858 - -50.3°
Reaches altitude 10° 02:31:13 10° 56° (NE) 2,003 - -49.2°
Maximum altitude 02:32:06 11° 68° (ENE) 1,983 - -49.0°
Drops below altitude 10° 02:32:59 10° 79° (E) 2,031 - -48.8°
Exits shadow 02:37:13 - 117° (ESE) 2,947 9.6 -47.8°
Sets 02:37:29 0° 118° (ESE) 3,030 9.6 -47.7°
